Location: Newark
(41.6500°N, 71.4833°W)
Time: 10:48:28
(UTC+00:00)

Courier 1B - Pass Details

Date: 26 January 2020
Orbit: 962 x 1209 km, 28.3° (Epoch: 25 February)

Event Time Altitude Azimuth Distance (km) Brightness Sun altitude
Rises 09:41:45 0° 252° (WSW) 3,924 - -26.5°
Reaches altitude 10° 09:44:53 10° 241° (WSW) 3,005 - -25.9°
Exits shadow 09:48:40 24° 214° (SSW) 2,178 9.0 -25.2°
Maximum altitude 09:51:02 28° 185° (S) 2,012 9.1 -24.8°
Drops below altitude 10° 09:57:25 10° 129° (SE) 3,118 10.9 -23.6°
Sets 10:00:43 0° 119° (ESE) 4,097 11.9 -23.0°
